Date,Installs,Update checks
2016-06-22,0,1
2016-06-23,3,1
2016-06-24,3,2
2016-06-25,6,4
2016-06-26,3,3
2016-06-27,8,5
2016-06-28,10,10
2016-06-29,11,10
2016-06-30,4,10
2016-07-01,2,12
2016-07-02,3,5
2016-07-03,8,16
2016-07-04,13,15
2016-07-05,19,23
2016-07-06,10,20
2016-07-07,7,36
2016-07-08,9,27
2016-07-09,8,27
2016-07-10,10,21
2016-07-11,7,35
2016-07-12,11,28
2016-07-13,11,37
2016-07-14,11,28
2016-07-15,13,37
2016-07-16,6,29
2016-07-17,4,40
2016-07-18,4,38
2016-07-19,7,49
2016-07-20,14,37
2016-07-21,8,51
2016-07-22,10,50
2016-07-23,10,43
2016-07-24,6,61
2016-07-25,6,49
2016-07-26,2,56
2016-07-27,9,64
2016-07-28,7,56
2016-07-29,6,58
2016-07-30,10,60
2016-07-31,4,46
2016-08-01,6,61
2016-08-02,11,65
2016-08-03,1,69
2016-08-04,1,61
2016-08-05,3,66
2016-08-06,8,62
2016-08-07,4,59
2016-08-08,7,71
2016-08-09,2,66
2016-08-10,6,70
2016-08-11,10,75
2016-08-12,10,66
2016-08-13,13,71
2016-08-14,8,72
2016-08-15,5,87
2016-08-16,10,68
2016-08-17,8,95
2016-08-18,7,68
2016-08-19,9,92
2016-08-20,2,64
2016-08-21,4,84
2016-08-22,6,78
2016-08-23,4,76
2016-08-24,1,90
2016-08-25,2,70
2016-08-26,3,82
2016-08-27,2,75
2016-08-28,13,71
2016-08-29,6,80
2016-08-30,5,80
2016-08-31,9,89
2016-09-01,3,92
2016-09-02,6,80
2016-09-03,6,89
2016-09-04,7,75
2016-09-05,6,95
2016-09-06,13,98
2016-09-07,12,89
2016-09-08,14,104
2016-09-09,8,88
2016-09-10,8,91
2016-09-11,10,90
2016-09-12,8,113
2016-09-13,9,96
2016-09-14,11,113
2016-09-15,4,111
2016-09-16,5,88
2016-09-17,3,104
2016-09-18,7,100
2016-09-19,5,132
2016-09-20,4,96
2016-09-21,2,123
2016-09-22,7,91
2016-09-23,8,108
2016-09-24,6,96
2016-09-25,9,107
2016-09-26,14,109
2016-09-27,10,116
2016-09-28,10,127
2016-09-29,8,115
2016-09-30,6,119
2016-10-01,4,114
2016-10-02,5,127
2016-10-03,6,113
2016-10-04,0,126
2016-10-05,2,111
2016-10-06,7,124
2016-10-07,10,104
2016-10-08,2,120
2016-10-09,7,106
2016-10-10,8,136
2016-10-11,7,110
2016-10-12,7,149
2016-10-13,11,112
2016-10-14,16,138
2016-10-15,7,110
2016-10-16,12,119
2016-10-17,11,120
2016-10-18,11,138
2016-10-19,11,116
2016-10-20,14,138
2016-10-21,15,138
2016-10-22,13,124
2016-10-23,16,130
2016-10-24,6,145
2016-10-25,8,127
2016-10-26,5,156
2016-10-27,3,147
2016-10-28,3,149
2016-10-29,9,121
2016-10-30,8,140
2016-10-31,13,136
2016-11-01,10,145
2016-11-02,9,145
2016-11-03,19,141
2016-11-04,7,148
2016-11-05,10,150
2016-11-06,11,141
2016-11-07,6,171
2016-11-08,7,148
2016-11-09,11,153
2016-11-10,5,139
2016-11-11,10,159
2016-11-12,7,137
2016-11-13,10,157
2016-11-14,8,159
2016-11-15,8,144
2016-11-16,2,160
2016-11-17,8,155
2016-11-18,8,175
2016-11-19,7,149
2016-11-20,17,149
2016-11-21,8,164
2016-11-22,5,172
2016-11-23,6,170
2016-11-24,8,150
2016-11-25,9,174
2016-11-26,10,142
2016-11-27,11,156
2016-11-28,10,169
2016-11-29,8,165
2016-11-30,6,167
2016-12-01,6,150
2016-12-02,11,160
2016-12-03,7,169
2016-12-04,16,137
2016-12-05,6,186
2016-12-06,7,152
2016-12-07,7,180
2016-12-08,6,147
2016-12-09,4,180
2016-12-10,8,147
2016-12-11,7,146
2016-12-12,9,174
2016-12-13,12,156
2016-12-14,6,183
2016-12-15,9,154
2016-12-16,9,171
2016-12-17,12,150
2016-12-18,9,176
2016-12-19,6,168
2016-12-20,3,160
2016-12-21,7,186
2016-12-22,5,157
2016-12-23,11,163
2016-12-24,7,168
2016-12-25,5,155
2016-12-26,12,171
2016-12-27,9,167
2016-12-28,6,172
2016-12-29,12,177
2016-12-30,14,176
2016-12-31,11,175
2017-01-01,8,174
2017-01-02,6,191
2017-01-03,10,181
2017-01-04,9,184
2017-01-05,4,194
2017-01-06,15,179
2017-01-07,5,180
2017-01-08,8,180
2017-01-09,8,194
2017-01-10,14,179
2017-01-11,7,208
2017-01-12,15,181
2017-01-13,2,195
2017-01-14,1,152
2017-01-15,11,186
2017-01-16,4,187
2017-01-17,16,197
2017-01-18,5,187
2017-01-19,9,194
2017-01-20,13,194
2017-01-21,6,168
2017-01-22,6,197
2017-01-23,12,198
2017-01-24,6,216
2017-01-25,5,192
2017-01-26,4,198
2017-01-27,4,178
2017-01-28,7,173
2017-01-29,3,184
2017-01-30,0,195
2017-01-31,5,177
2017-02-01,4,216
2017-02-02,5,191
2017-02-03,8,208
2017-02-04,8,187
2017-02-05,6,193
2017-02-06,3,206
2017-02-07,2,227
2017-02-08,8,206
2017-02-09,2,207
2017-02-10,3,190
2017-02-11,7,190
2017-02-12,14,186
2017-02-13,7,234
2017-02-14,3,182
2017-02-15,5,234
2017-02-16,3,186
2017-02-17,2,230
2017-02-18,1,186
2017-02-19,3,192
2017-02-20,5,229
2017-02-21,3,192
2017-02-22,4,222
2017-02-23,2,219
2017-02-24,3,207
2017-02-25,3,194
2017-02-26,5,216
2017-02-27,6,209
2017-02-28,9,207
2017-03-01,4,231
2017-03-02,2,211
2017-03-03,3,226
2017-03-04,7,184
2017-03-05,6,200
2017-03-06,6,238
2017-03-07,1,214
2017-03-08,3,225
2017-03-09,4,181
2017-03-10,3,210
2017-03-11,3,173
2017-03-12,4,201
2017-03-13,3,226
2017-03-14,2,193
2017-03-15,3,216
2017-03-16,4,200
2017-03-17,3,212
2017-03-18,4,199
2017-03-19,4,208
2017-03-20,3,229
2017-03-21,9,192
2017-03-22,4,228
2017-03-23,3,200
2017-03-24,4,210
2017-03-25,3,185
2017-03-26,2,196
2017-03-27,1,225
2017-03-28,3,196
2017-03-29,5,233
2017-03-30,4,203
2017-03-31,4,210
2017-04-01,3,198
2017-04-02,3,199
2017-04-03,3,199
2017-04-04,2,206
2017-04-05,5,221
2017-04-06,2,198
2017-04-07,1,211
2017-04-08,7,184
2017-04-09,6,194
2017-04-10,1,220
2017-04-11,2,202
2017-04-12,4,218
2017-04-13,2,193
2017-04-14,6,209
2017-04-15,1,196
2017-04-16,5,192
2017-04-17,6,200
2017-04-18,7,206
2017-04-19,10,196
2017-04-20,7,235
2017-04-21,6,179
2017-04-22,2,3
2017-04-23,4,256
2017-04-24,5,179
2017-04-25,1,230
2017-04-26,4,204
2017-04-27,8,233
2017-04-28,5,192
2017-04-29,5,201
2017-04-30,1,177
2017-05-01,6,213
2017-05-02,6,229
2017-05-03,6,213
2017-05-04,5,210
2017-05-05,3,227
2017-05-06,6,170
2017-05-07,5,203
2017-05-08,11,200
2017-05-09,5,235
2017-05-10,3,203
2017-05-11,5,217
2017-05-12,8,219
2017-05-13,6,185
2017-05-14,5,205
2017-05-15,3,238
2017-05-16,5,203
2017-05-17,2,226
2017-05-18,1,204
2017-05-19,6,207
2017-05-20,6,180
2017-05-21,6,187
2017-05-22,3,229
2017-05-23,2,209
2017-05-24,2,221
2017-05-25,1,207
2017-05-26,3,201
2017-05-27,4,196
2017-05-28,1,180
2017-05-29,3,225
2017-05-30,0,186
2017-05-31,2,215
2017-06-01,1,182
2017-06-02,2,203
2017-06-03,4,189
2017-06-04,3,200
2017-06-05,3,229
2017-06-06,7,200
2017-06-07,7,207
2017-06-08,5,220
2017-06-09,9,232
2017-06-10,8,205
2017-06-11,9,206
2017-06-12,5,230
2017-06-13,6,208
2017-06-14,2,229
2017-06-15,2,223
2017-06-16,8,208
2017-06-17,4,203
2017-06-18,7,184
2017-06-19,5,234
2017-06-20,5,217
2017-06-21,9,219
2017-06-22,8,233
2017-06-23,9,196
2017-06-24,10,203
2017-06-25,11,199
2017-06-26,8,230
2017-06-27,4,197
2017-06-28,5,223
2017-06-29,5,219
2017-06-30,6,229
2017-07-01,6,191
2017-07-02,7,198
2017-07-03,5,223
2017-07-04,4,211
2017-07-05,10,226
2017-07-06,6,213
2017-07-07,7,239
2017-07-08,5,210
2017-07-09,5,184
2017-07-10,2,243
2017-07-11,2,221
2017-07-12,3,226
2017-07-13,4,207
2017-07-14,6,213
2017-07-15,3,191
2017-07-16,3,178
2017-07-17,8,232
2017-07-18,3,202
2017-07-19,2,210
2017-07-20,2,198
2017-07-21,0,262
2017-07-22,1,179
2017-07-23,2,203
2017-07-24,0,191
2017-07-25,2,225
2017-07-26,4,174
2017-07-27,4,231
2017-07-28,2,209
2017-07-29,1,214
2017-07-30,4,193
2017-07-31,0,214
2017-08-01,6,215
2017-08-02,4,212
2017-08-03,4,210
2017-08-04,2,207
2017-08-05,5,192
2017-08-06,1,184
2017-08-07,1,214
2017-08-08,5,223
2017-08-09,3,203
2017-08-10,4,192
2017-08-11,2,215
2017-08-12,7,185
2017-08-13,6,188
2017-08-14,4,194
2017-08-15,2,203
2017-08-16,3,226
2017-08-17,4,198
2017-08-18,3,210
2017-08-19,4,184
2017-08-20,2,196
2017-08-21,4,225
2017-08-22,4,195
2017-08-23,6,158
2017-08-24,5,236
2017-08-25,8,194
2017-08-26,1,192
2017-08-27,2,193
2017-08-28,4,224
2017-08-29,5,229
2017-08-30,8,190
2017-08-31,6,224
2017-09-01,0,210
2017-09-02,4,183
2017-09-03,6,193
2017-09-04,6,237
2017-09-05,2,230
2017-09-06,3,161
2017-09-07,5,221
2017-09-08,3,224
2017-09-09,4,175
2017-09-10,4,216
2017-09-11,2,218
2017-09-12,1,208
2017-09-13,4,156
2017-09-14,4,212
2017-09-15,2,220
2017-09-16,2,180
2017-09-17,5,177
2017-09-18,3,215
2017-09-19,2,205
2017-09-20,3,196
2017-09-21,4,210
2017-09-22,4,195
2017-09-23,3,182
2017-09-24,2,195
2017-09-25,1,215
2017-09-26,3,177
2017-09-27,0,199
2017-09-28,3,202
2017-09-29,3,187
2017-09-30,1,181
2017-10-01,6,175
2017-10-02,3,167
2017-10-03,6,180
2017-10-04,7,179
2017-10-05,2,207
2017-10-06,7,182
2017-10-07,7,201
2017-10-08,3,191
2017-10-09,3,213
2017-10-10,6,207
2017-10-11,3,217
2017-10-12,5,212
2017-10-13,6,215
2017-10-14,4,190
2017-10-15,4,195
2017-10-16,5,190
2017-10-17,3,201
2017-10-18,6,211
2017-10-19,4,220
2017-10-20,6,223
2017-10-21,3,206
2017-10-22,6,196
2017-10-23,5,219
2017-10-24,5,229
2017-10-25,4,215
2017-10-26,1,213
2017-10-27,2,193
2017-10-28,7,201
2017-10-29,7,196
2017-10-30,4,218
2017-10-31,3,215
2017-11-01,6,206
2017-11-02,1,201
2017-11-03,6,210
2017-11-04,7,199
2017-11-05,4,197
2017-11-06,0,141
2017-11-07,0,221
2017-11-08,0,203
2017-11-09,1,203
2017-11-10,0,199
2017-11-11,1,206
2017-11-12,2,196
2017-11-13,1,218
2017-11-14,7,212
2017-11-15,2,224
2017-11-16,6,217
2017-11-17,6,197
2017-11-18,4,182
2017-11-19,3,166
2017-11-20,3,209
2017-11-21,5,198
2017-11-22,4,195
2017-11-23,4,198
2017-11-24,7,184
2017-11-25,6,185
2017-11-26,9,163
2017-11-27,2,199
2017-11-28,5,183
2017-11-29,3,201
2017-11-30,2,179
2017-12-01,1,172
2017-12-02,2,171
2017-12-03,0,174
2017-12-04,0,187
2017-12-05,2,198
2017-12-06,4,167
2017-12-07,1,197
2017-12-08,1,182
2017-12-09,1,183
2017-12-10,2,173
2017-12-11,0,197
2017-12-12,1,203
2017-12-13,1,174
2017-12-14,2,191
2017-12-15,3,186
2017-12-16,2,164
2017-12-17,5,178
2017-12-18,0,187
2017-12-19,2,176
2017-12-20,4,193
2017-12-21,4,189
2017-12-22,1,187
2017-12-23,1,162
2017-12-24,1,170
2017-12-25,2,165
2017-12-26,3,178
2017-12-27,2,180
2017-12-28,3,196
2017-12-29,1,176
2017-12-30,1,160
2017-12-31,1,156
2018-01-01,1,161
2018-01-02,3,186
2018-01-03,2,186
2018-01-04,4,183
2018-01-05,2,168
2018-01-06,0,159
2018-01-07,2,176
2018-01-08,1,186
2018-01-09,3,178
2018-01-10,1,196
2018-01-11,2,169
2018-01-12,2,180
2018-01-13,1,144
2018-01-14,2,172
2018-01-15,0,187
2018-01-16,0,182
2018-01-17,1,160
2018-01-18,1,174
2018-01-19,0,175
2018-01-20,4,172
2018-01-21,1,160
2018-01-22,3,190
2018-01-23,2,168
2018-01-24,4,189
2018-01-25,3,175
2018-01-26,2,188
2018-01-27,2,148
2018-01-28,4,155
2018-01-29,2,191
2018-01-30,3,179
2018-01-31,4,180
2018-02-01,4,179
2018-02-02,1,179
2018-02-03,0,160
2018-02-04,0,149
2018-02-05,1,179
2018-02-06,1,188
2018-02-07,1,167
2018-02-08,2,170
2018-02-09,2,176
2018-02-10,5,152
2018-02-11,2,156
2018-02-12,1,163
2018-02-13,0,176
2018-02-14,1,146
2018-02-15,2,172
2018-02-16,1,153
2018-02-17,1,141
2018-02-18,4,131
2018-02-19,4,165
2018-02-20,2,157
2018-02-21,1,162
2018-02-22,1,162
2018-02-23,0,183
2018-02-24,1,175
2018-02-25,2,137
2018-02-26,3,173
2018-02-27,3,165
2018-02-28,4,144
2018-03-01,3,152
2018-03-02,3,171
2018-03-03,1,132
2018-03-04,3,134
2018-03-05,3,158
2018-03-06,2,161
2018-03-07,0,148
2018-03-08,1,157
2018-03-09,0,139
2018-03-10,1,132
2018-03-11,3,128
2018-03-12,0,165
2018-03-13,2,170
2018-03-14,1,139
2018-03-15,0,152
2018-03-16,0,152
2018-03-17,1,133
2018-03-18,0,141
2018-03-19,1,149
2018-03-20,2,142
2018-03-21,3,140
2018-03-22,3,160
2018-03-23,3,154
2018-03-24,5,133
2018-03-25,5,146
2018-03-26,4,151
2018-03-27,4,149
2018-03-28,3,147
2018-03-29,4,157
2018-03-30,3,141
2018-03-31,2,125
2018-04-01,3,124
2018-04-02,3,140
2018-04-03,4,151
2018-04-04,1,162
2018-04-05,6,134
2018-04-06,0,148
2018-04-07,2,145
2018-04-08,1,142
2018-04-09,1,166
2018-04-10,0,156
2018-04-11,2,150
2018-04-12,2,163
2018-04-13,3,150
2018-04-14,2,131
2018-04-15,2,149
2018-04-16,2,152
2018-04-17,3,174
2018-04-18,0,154
2018-04-19,3,167
2018-04-20,3,135
2018-04-21,1,134
2018-04-22,2,133
2018-04-23,5,168
2018-04-24,1,137
2018-04-25,3,137
2018-04-26,2,157
2018-04-27,0,150
2018-04-28,6,116
2018-04-29,1,127
2018-04-30,1,144
2018-05-01,0,135
2018-05-02,0,152
2018-05-03,0,163
2018-05-04,2,135
2018-05-05,0,142
2018-05-06,0,140
2018-05-07,1,172
2018-05-08,2,160
2018-05-09,0,151
2018-05-10,1,139
2018-05-11,2,145
2018-05-12,2,140
2018-05-13,1,139
2018-05-14,0,154
2018-05-15,2,158
2018-05-16,2,159
2018-05-17,0,159
2018-05-18,1,145
2018-05-19,2,114
2018-05-20,0,146
2018-05-21,0,154
2018-05-22,0,167
2018-05-23,2,152
2018-05-24,2,147
2018-05-25,2,148
2018-05-26,3,133
2018-05-27,0,123
2018-05-28,1,176
2018-05-29,0,146
2018-05-30,1,143
2018-05-31,3,146
2018-06-01,2,141
2018-06-02,0,97
2018-06-03,4,110
2018-06-04,4,127
2018-06-05,4,124
2018-06-06,3,131
2018-06-07,5,133
2018-06-08,2,120
2018-06-09,2,117
2018-06-10,2,116
2018-06-11,3,121
2018-06-12,4,98
2018-06-13,8,117
2018-06-14,9,134
2018-06-15,5,115
2018-06-16,2,110
2018-06-17,1,107
2018-06-18,1,110
2018-06-19,3,119
2018-06-20,1,98
2018-06-21,2,110
2018-06-22,0,126
2018-06-23,0,99
2018-06-24,0,98
2018-06-25,1,134
2018-06-26,1,109
2018-06-27,0,109
2018-06-28,0,122
2018-06-29,1,112
2018-06-30,2,99
2018-07-01,2,110
2018-07-02,5,131
2018-07-03,2,117
2018-07-04,2,123
2018-07-05,1,129
2018-07-06,0,117
2018-07-07,2,105
2018-07-08,1,105
2018-07-09,1,127
2018-07-10,0,111
2018-07-11,1,123
2018-07-12,1,105
2018-07-13,0,109
2018-07-14,0,92
2018-07-15,1,102
2018-07-16,0,121
2018-07-17,1,116
2018-07-18,0,118
2018-07-19,0,107
2018-07-20,0,108
2018-07-21,0,102
2018-07-22,0,98
2018-07-23,0,117
2018-07-24,0,116
2018-07-25,0,117
2018-07-26,0,114
2018-07-27,0,107
2018-07-28,0,86
2018-07-29,0,97
2018-07-30,0,108
2018-07-31,1,100
2018-08-01,2,111
2018-08-02,2,99
2018-08-03,1,101
2018-08-04,0,90
2018-08-05,1,79
2018-08-06,0,109
2018-08-07,0,111
2018-08-08,1,98
2018-08-09,3,104
2018-08-10,2,109
2018-08-11,3,89
2018-08-12,1,83
2018-08-13,3,109
2018-08-14,4,103
2018-08-15,5,104
2018-08-16,3,113
2018-08-17,5,96
2018-08-18,6,91
2018-08-19,2,86
2018-08-20,2,120
2018-08-21,4,104
2018-08-22,3,104
2018-08-23,1,118
2018-08-24,1,109
2018-08-25,1,91
2018-08-26,0,89
2018-08-27,1,114
2018-08-28,1,99
2018-08-29,0,115
2018-08-30,0,107
2018-08-31,2,103
2018-09-01,1,86
2018-09-02,5,85
2018-09-03,1,114
2018-09-04,0,116
2018-09-05,1,106
2018-09-06,1,100
2018-09-07,0,114
2018-09-08,2,96
2018-09-09,0,88
2018-09-10,2,118
2018-09-11,2,105
2018-09-12,2,110
2018-09-13,2,106
2018-09-14,3,121
2018-09-15,2,108
2018-09-16,1,98
2018-09-17,1,107
2018-09-18,3,119
2018-09-19,3,97
2018-09-20,2,101
2018-09-21,3,110
2018-09-22,2,81
2018-09-23,2,98
2018-09-24,2,106
2018-09-25,2,124
2018-09-26,2,108
2018-09-27,4,126
2018-09-28,4,102
2018-09-29,2,112
2018-09-30,2,93
2018-10-01,4,103
2018-10-02,1,104
2018-10-03,3,104
2018-10-04,2,100
2018-10-05,1,122
2018-10-06,3,78
2018-10-07,2,86
2018-10-08,1,118
2018-10-09,1,107
2018-10-10,1,102
2018-10-11,1,97
2018-10-12,2,124
2018-10-13,0,92
2018-10-14,2,88
2018-10-15,0,110
2018-10-16,0,109
2018-10-17,1,113
2018-10-18,1,104
2018-10-19,1,98
2018-10-20,2,94
2018-10-21,1,100
2018-10-22,1,128
2018-10-23,3,109
2018-10-24,2,110
2018-10-25,2,109
2018-10-26,0,96
2018-10-27,1,105
2018-10-28,3,104
2018-10-29,3,119
2018-10-30,1,106
2018-10-31,2,110
2018-11-01,0,98
2018-11-02,0,105
2018-11-03,0,94
2018-11-04,2,103
2018-11-05,0,110
2018-11-06,0,121
2018-11-07,0,98
2018-11-08,1,107
2018-11-09,2,97
2018-11-10,6,93
2018-11-11,5,98
2018-11-12,3,119
2018-11-13,1,109
2018-11-14,3,102
2018-11-15,2,109
2018-11-16,2,115
2018-11-17,0,101
2018-11-18,1,93
2018-11-19,3,131
2018-11-20,2,106
2018-11-21,3,114
2018-11-22,2,112
2018-11-23,1,106
2018-11-24,2,87
2018-11-25,0,99
2018-11-26,2,124
2018-11-27,1,115
2018-11-28,0,92
2018-11-29,1,103
2018-11-30,1,99
2018-12-01,1,101
2018-12-02,0,105
2018-12-03,1,116
2018-12-04,4,105
2018-12-05,3,97
2018-12-06,2,104
2018-12-07,1,100
2018-12-08,2,86
2018-12-09,1,92
2018-12-10,0,99
2018-12-11,0,106
2018-12-12,0,101
2018-12-13,0,103
2018-12-14,2,99
2018-12-15,5,83
2018-12-16,2,82
2018-12-17,1,101
2018-12-18,0,122
2018-12-19,0,92
2018-12-20,1,109
2018-12-21,1,113
2018-12-22,2,106
2018-12-23,2,85
2018-12-24,1,101
2018-12-25,2,82
2018-12-26,2,105
2018-12-27,3,103
2018-12-28,2,97
2018-12-29,2,94
2018-12-30,3,72
2018-12-31,9,94
2019-01-01,1,93
2019-01-02,1,114
2019-01-03,1,101
2019-01-04,1,101
2019-01-05,2,100
2019-01-06,1,101
2019-01-07,3,106
2019-01-08,4,98
2019-01-09,2,108
2019-01-10,2,99
2019-01-11,1,113
2019-01-12,2,86
2019-01-13,2,102
2019-01-14,3,107
2019-01-15,4,101
2019-01-16,3,109
2019-01-17,0,97
2019-01-18,2,97
2019-01-19,0,98
2019-01-20,0,88
2019-01-21,0,118
2019-01-22,0,95
2019-01-23,0,100
2019-01-24,2,97
2019-01-25,0,85
2019-01-26,0,99
2019-01-27,1,85
2019-01-28,1,99
2019-01-29,2,89
2019-01-30,2,95
2019-01-31,2,91
2019-02-01,2,78
2019-02-02,1,87
2019-02-03,4,95
2019-02-04,6,93
2019-02-05,5,96
2019-02-06,1,90
2019-02-07,1,93
2019-02-08,2,92
2019-02-09,4,78
2019-02-10,4,90
2019-02-11,3,93
2019-02-12,2,94
2019-02-13,4,91
2019-02-14,3,93
2019-02-15,2,89
2019-02-16,2,89
2019-02-17,1,93
2019-02-18,0,114
2019-02-19,1,97
2019-02-20,2,109
2019-02-21,4,95
2019-02-22,3,103
2019-02-23,2,99
2019-02-24,2,94
2019-02-25,2,113
2019-02-26,2,109
2019-02-27,2,107
2019-02-28,3,118
2019-03-01,0,95
2019-03-02,4,103
2019-03-03,5,84
2019-03-04,2,113
2019-03-05,1,109
2019-03-06,2,119
2019-03-07,0,98
2019-03-08,0,111
2019-03-09,1,103
2019-03-10,8,96
2019-03-11,3,119
2019-03-12,2,106
2019-03-13,2,104
2019-03-14,3,111
2019-03-15,3,107
2019-03-16,2,90
2019-03-17,0,97
2019-03-18,0,108
2019-03-19,0,102
2019-03-20,2,114
2019-03-21,2,100
2019-03-22,3,101
2019-03-23,1,85
2019-03-24,1,90
2019-03-25,2,110
2019-03-26,2,104
2019-03-27,0,94
2019-03-28,1,108
2019-03-29,0,94
2019-03-30,1,82
2019-03-31,0,93
2019-04-01,0,99
2019-04-02,0,96
2019-04-03,1,90
2019-04-04,1,106
2019-04-05,3,83
2019-04-06,3,91
2019-04-07,3,89
2019-04-08,1,105
2019-04-09,1,87
2019-04-10,0,107
2019-04-11,1,100
2019-04-12,2,95
2019-04-13,2,89
2019-04-14,3,94
2019-04-15,3,102
2019-04-16,5,99
2019-04-17,3,92
2019-04-18,2,110
2019-04-19,4,102
2019-04-20,4,102
2019-04-21,4,93
2019-04-22,3,101
2019-04-23,1,109
2019-04-24,2,98
2019-04-25,2,105
2019-04-26,1,115
2019-04-27,0,95
2019-04-28,0,105
2019-04-29,2,110
2019-04-30,2,108
2019-05-01,5,89
2019-05-02,7,95
2019-05-03,7,106
2019-05-04,4,85
2019-05-05,4,109
2019-05-06,5,120
2019-05-07,4,116
2019-05-08,5,128
2019-05-09,2,110
2019-05-10,4,112
2019-05-11,2,92
2019-05-12,4,94
2019-05-13,11,122
2019-05-14,9,117
2019-05-15,6,121
2019-05-16,1,107
2019-05-17,2,100
2019-05-18,6,92
2019-05-19,3,108
2019-05-20,4,121
2019-05-21,1,106
2019-05-22,2,110
2019-05-23,0,110
2019-05-24,0,116
2019-05-25,1,86
2019-05-26,6,89
2019-05-27,5,106
2019-05-28,4,105
2019-05-29,3,104
2019-05-30,1,106
2019-05-31,1,102
2019-06-01,1,93
2019-06-02,1,94
2019-06-03,0,102
2019-06-04,1,104
2019-06-05,0,89
2019-06-06,0,89
2019-06-07,0,95
2019-06-08,1,86
2019-06-09,1,82
2019-06-10,2,111
2019-06-11,1,98
2019-06-12,1,98
2019-06-13,0,88
2019-06-14,0,98
2019-06-15,0,82
2019-06-16,2,67
2019-06-17,0,95
2019-06-18,0,87
2019-06-19,0,77
2019-06-20,0,94
2019-06-21,0,100
2019-06-22,2,61
2019-06-23,3,72
2019-06-24,2,90
2019-06-25,2,82
2019-06-26,1,75
2019-06-27,0,82
2019-06-28,0,81
2019-06-29,1,71
2019-06-30,1,63
2019-07-01,7,98
2019-07-02,3,88
2019-07-03,3,75
2019-07-04,1,81
2019-07-05,1,95
2019-07-06,3,72
2019-07-07,2,64
2019-07-08,2,93
2019-07-09,5,79
2019-07-10,4,82
2019-07-11,4,74
2019-07-12,3,98
2019-07-13,3,72
2019-07-14,1,72
2019-07-15,0,84
2019-07-16,0,84
2019-07-17,0,69
2019-07-18,0,85
2019-07-19,0,87
2019-07-20,1,78
2019-07-21,2,73
2019-07-22,3,86
2019-07-23,1,88
2019-07-24,1,83
2019-07-25,3,69
2019-07-26,4,80
2019-07-27,3,62
2019-07-28,5,68
2019-07-29,2,92
2019-07-30,2,93
2019-07-31,4,77
2019-08-01,2,78
2019-08-02,1,75
2019-08-03,3,83
2019-08-04,1,63
2019-08-05,1,84
2019-08-06,4,90
2019-08-07,4,84
2019-08-08,0,96
2019-08-09,0,83
2019-08-10,2,60
2019-08-11,5,65
2019-08-12,5,84
2019-08-13,3,86
2019-08-14,1,66
2019-08-15,2,71
2019-08-16,1,71
2019-08-17,5,61
2019-08-18,5,68
2019-08-19,3,69
2019-08-20,1,69
2019-08-21,1,67
2019-08-22,3,79
2019-08-23,3,67
2019-08-24,3,71
2019-08-25,2,69
2019-08-26,2,79
2019-08-27,0,75
2019-08-28,0,74
2019-08-29,1,74
2019-08-30,4,72
2019-08-31,3,73
2019-09-01,2,72
2019-09-02,4,76
2019-09-03,3,73
2019-09-04,5,71
2019-09-05,6,77
2019-09-06,3,80
2019-09-07,1,69
2019-09-08,1,73
2019-09-09,3,73
2019-09-10,1,70
2019-09-11,0,67
2019-09-12,0,78
2019-09-13,0,61
2019-09-14,0,61
2019-09-15,1,63
2019-09-16,2,74
2019-09-17,2,86
2019-09-18,4,78
2019-09-19,2,76
2019-09-20,3,83
2019-09-21,2,72
2019-09-22,1,68
2019-09-23,1,93
2019-09-24,4,60
2019-09-25,3,72
2019-09-26,3,73
2019-09-27,3,67
2019-09-28,1,63
2019-09-29,1,61
2019-09-30,0,57
2019-10-01,0,68
2019-10-02,1,59
2019-10-03,1,72
2019-10-04,0,63
2019-10-05,3,61
2019-10-06,2,66
2019-10-07,2,73
2019-10-08,1,92
2019-10-09,3,62
2019-10-10,2,83
2019-10-11,4,70
2019-10-12,3,56
2019-10-13,1,56
2019-10-14,0,79
2019-10-15,0,83
2019-10-16,0,69
2019-10-17,0,77
2019-10-18,0,73
2019-10-19,0,53
2019-10-20,1,60
2019-10-21,1,88
2019-10-22,0,68
2019-10-23,0,75
2019-10-24,0,77
2019-10-25,0,68
2019-10-26,0,58
2019-10-27,2,56
2019-10-28,1,79
2019-10-29,0,69
2019-10-30,0,73
2019-10-31,0,57
2019-11-01,0,65
2019-11-02,0,57
2019-11-03,2,67
2019-11-04,0,78
2019-11-05,0,72
2019-11-06,1,70
2019-11-07,0,65
2019-11-08,0,66
2019-11-09,0,65
2019-11-10,0,63
2019-11-11,1,71
2019-11-12,1,59
2019-11-13,0,63
2019-11-14,1,68
2019-11-15,1,65
2019-11-16,1,56
2019-11-17,0,53
2019-11-18,0,69
2019-11-19,1,66
2019-11-20,1,76
2019-11-21,1,65
2019-11-22,0,68
2019-11-23,1,56
2019-11-24,0,54
2019-11-25,0,69
2019-11-26,0,59
2019-11-27,0,56
2019-11-28,0,65
2019-11-29,0,68
2019-11-30,1,54
2019-12-01,0,64
2019-12-02,0,77
2019-12-03,0,73
2019-12-04,0,65
2019-12-05,0,56
2019-12-06,0,66
2019-12-07,0,56
2019-12-08,0,58
2019-12-09,3,86
2019-12-10,3,69
2019-12-11,0,64
2019-12-12,0,78
2019-12-13,0,71
2019-12-14,0,54
2019-12-15,0,66
2019-12-16,0,58
2019-12-17,2,65
2019-12-18,0,64
2019-12-19,0,56
2019-12-20,0,71
2019-12-21,1,54
2019-12-22,0,58
2019-12-23,0,74
2019-12-24,1,49
2019-12-25,1,57
2019-12-26,0,57
2019-12-27,0,68
2019-12-28,2,61
2019-12-29,1,55
2019-12-30,0,69
2019-12-31,1,56
2020-01-01,0,52
2020-01-02,0,71
2020-01-03,1,58
2020-01-04,2,64
2020-01-05,1,72
2020-01-06,0,59
2020-01-07,1,73
2020-01-08,1,72
2020-01-09,0,70
2020-01-10,0,69
2020-01-11,0,59
2020-01-12,0,66
2020-01-13,0,71
2020-01-14,0,74
2020-01-15,0,69
2020-01-16,0,69
2020-01-17,0,55
2020-01-18,0,50
2020-01-19,0,54
2020-01-20,0,62
2020-01-21,0,49
2020-01-22,0,53
2020-01-23,0,48
2020-01-24,0,51
2020-01-25,0,47
2020-01-26,2,48
2020-01-27,0,49
2020-01-28,0,55
2020-01-29,0,53
2020-01-30,0,61
2020-01-31,1,62
2020-02-01,0,52
2020-02-02,0,53
2020-02-03,1,67
2020-02-04,0,73
2020-02-05,0,73
2020-02-06,0,68
2020-02-07,0,73
2020-02-08,1,20
2020-02-09,1,30
2020-02-10,0,76
2020-02-11,1,63
2020-02-12,0,69
2020-02-13,0,65
2020-02-14,0,58
2020-02-15,3,63
2020-02-16,0,66
2020-02-17,0,80
2020-02-18,2,67
2020-02-19,0,56
2020-02-20,1,76
2020-02-21,0,63
2020-02-22,0,71
2020-02-23,0,56
2020-02-24,0,63
2020-02-25,0,70
2020-02-26,0,67
2020-02-27,0,66
2020-02-28,1,69
2020-02-29,0,62
2020-03-01,0,67
2020-03-02,0,69
2020-03-03,1,69
2020-03-04,1,67
2020-03-05,0,73
2020-03-06,1,74
2020-03-07,1,72
2020-03-08,0,65
2020-03-09,0,71
2020-03-10,0,65
2020-03-11,0,69
2020-03-12,0,60
2020-03-13,0,75
2020-03-14,0,60
2020-03-15,0,60
2020-03-16,0,61
2020-03-17,0,75
2020-03-18,0,75
2020-03-19,0,65
2020-03-20,0,65
2020-03-21,0,62
2020-03-22,0,60
2020-03-23,0,65
2020-03-24,0,56
2020-03-25,0,67
2020-03-26,1,62
2020-03-27,0,70
2020-03-28,0,58
2020-03-29,0,54
2020-03-30,0,64
2020-03-31,0,63
2020-04-01,0,68
2020-04-02,0,62
2020-04-03,0,63
2020-04-04,0,53
2020-04-05,2,60
2020-04-06,0,71
2020-04-07,0,63
2020-04-08,2,66
2020-04-09,0,64
2020-04-10,2,62
2020-04-11,0,67
2020-04-12,0,44
2020-04-13,0,55
2020-04-14,0,63
2020-04-15,0,57
2020-04-16,0,49
2020-04-17,1,59
2020-04-18,0,54
2020-04-19,0,63
2020-04-20,0,68
2020-04-21,0,60
2020-04-22,0,61
2020-04-23,0,65
2020-04-24,0,61
2020-04-25,0,57
2020-04-26,1,51
2020-04-27,1,54
2020-04-28,0,54
2020-04-29,0,62
2020-04-30,0,49
2020-05-01,0,52
2020-05-02,0,51
2020-05-03,3,55
2020-05-04,0,55
2020-05-05,0,60
2020-05-06,1,64
2020-05-07,0,53
2020-05-08,0,64
2020-05-09,0,51
2020-05-10,1,54
2020-05-11,0,55
2020-05-12,0,52
2020-05-13,1,57
2020-05-14,0,63
2020-05-15,0,59
2020-05-16,0,44
2020-05-17,0,52
2020-05-18,0,53
2020-05-19,0,63
2020-05-20,0,48
2020-05-21,2,50
2020-05-22,1,51
2020-05-23,0,49
2020-05-24,0,45
2020-05-25,1,55
2020-05-26,0,64
2020-05-27,0,48
2020-05-28,0,52
2020-05-29,1,50
2020-05-30,1,47
2020-05-31,0,49